N6TG EGPD-EGPH

Flight info

Callsign N6TG
Flight time 0h 37m
Altitude 12000
Route GLESK P600 PTH
Aircraft BE20/L-SBGRY/S

Departure

Time 2026-05-07 16:22
Airport Aberdeen International Airport (EGPD)

Arrival

Time 2026-05-07 16:59
Airport Edinburgh Airport (EGPH)
Time Latitude Longitude Altitude Speed Heading
2026-05-07 16:13 57.20239 -2.19380 242 ft 0 kts 19°
2026-05-07 16:16 57.20240 -2.19380 242 ft 0 kts 19°
2026-05-07 16:16 57.20262 -2.19408 242 ft 9 kts 317°
2026-05-07 16:16 57.20315 -2.19535 242 ft 16 kts 312°
2026-05-07 16:17 57.20355 -2.19729 243 ft 16 kts 279°
2026-05-07 16:17 57.20424 -2.19771 242 ft 14 kts
2026-05-07 16:17 57.20538 -2.19744 242 ft 14 kts
2026-05-07 16:17 57.20578 -2.19828 242 ft 10 kts 225°
2026-05-07 16:18 57.20518 -2.19955 244 ft 16 kts 229°
2026-05-07 16:18 57.20429 -2.20139 243 ft 19 kts 248°
2026-05-07 16:18 57.20445 -2.20302 242 ft 16 kts 292°
2026-05-07 16:18 57.20534 -2.20360 242 ft 17 kts 342°
2026-05-07 16:19 57.20668 -2.20460 242 ft 24 kts 337°
2026-05-07 16:19 57.20835 -2.20582 242 ft 29 kts 338°
2026-05-07 16:19 57.20925 -2.20651 242 ft 7 kts 339°
2026-05-07 16:19 57.20993 -2.20657 242 ft 13 kts 46°
2026-05-07 16:20 57.21005 -2.20615 242 ft 0 kts 74°
2026-05-07 16:20 57.21006 -2.20610 242 ft 3 kts 66°
2026-05-07 16:21 57.21033 -2.20488 243 ft 16 kts 69°
2026-05-07 16:21 57.20991 -2.20364 243 ft 21 kts 157°
2026-05-07 16:21 57.20637 -2.20103 244 ft 85 kts 158°
2026-05-07 16:21 57.19996 -2.19601 454 ft 114 kts 158°
2026-05-07 16:22 57.19204 -2.19000 976 ft 123 kts 158°
2026-05-07 16:22 57.18416 -2.18072 1316 ft 150 kts 149°
2026-05-07 16:22 57.17597 -2.16978 1962 ft 135 kts 160°
2026-05-07 16:22 57.16642 -2.16564 2223 ft 151 kts 185°
2026-05-07 16:23 57.15565 -2.17124 2328 ft 176 kts 212°
2026-05-07 16:23 57.14856 -2.19105 2337 ft 203 kts 255°
2026-05-07 16:23 57.14949 -2.21501 3375 ft 158 kts 272°
2026-05-07 16:23 57.15109 -2.23171 4722 ft 113 kts 266°
2026-05-07 16:24 57.15182 -2.24558 5281 ft 116 kts 261°
2026-05-07 16:24 57.15165 -2.26002 5996 ft 100 kts 255°
2026-05-07 16:24 57.15075 -2.27397 6324 ft 120 kts 254°
2026-05-07 16:24 57.14939 -2.29061 6624 ft 142 kts 254°
2026-05-07 16:25 57.14759 -2.30984 6922 ft 162 kts 255°
2026-05-07 16:25 57.14555 -2.33099 7314 ft 171 kts 255°
2026-05-07 16:25 57.14339 -2.35288 7757 ft 176 kts 255°
2026-05-07 16:25 57.14114 -2.37538 8215 ft 180 kts 254°
2026-05-07 16:26 57.13952 -2.39069 8502 ft 180 kts 251°
2026-05-07 16:26 57.13400 -2.41081 8994 ft 174 kts 227°
2026-05-07 16:26 57.12564 -2.42597 9705 ft 165 kts 222°
2026-05-07 16:26 57.11721 -2.43985 10353 ft 159 kts 221°
2026-05-07 16:27 57.10905 -2.45309 10985 ft 154 kts 221°
2026-05-07 16:27 57.10115 -2.46592 11646 ft 149 kts 221°
2026-05-07 16:27 57.09315 -2.47902 11974 ft 167 kts 221°
2026-05-07 16:27 57.08375 -2.49452 11986 ft 193 kts 222°
2026-05-07 16:28 57.07358 -2.51139 11996 ft 200 kts 222°
2026-05-07 16:28 57.06310 -2.52873 11994 ft 205 kts 222°
2026-05-07 16:28 57.05242 -2.54636 11994 ft 208 kts 222°
2026-05-07 16:28 57.04163 -2.56415 11994 ft 209 kts 222°
2026-05-07 16:29 57.03074 -2.58205 12002 ft 210 kts 222°
2026-05-07 16:29 57.01979 -2.60004 11989 ft 211 kts 222°
2026-05-07 16:29 57.00883 -2.61804 11985 ft 212 kts 222°
2026-05-07 16:29 56.99786 -2.63601 11986 ft 211 kts 222°
2026-05-07 16:30 56.98689 -2.65398 11986 ft 211 kts 222°
2026-05-07 16:30 56.97591 -2.67197 11986 ft 211 kts 222°
2026-05-07 16:30 56.96496 -2.68987 11988 ft 211 kts 222°
2026-05-07 16:30 56.95399 -2.70779 11993 ft 211 kts 222°
2026-05-07 16:31 56.94307 -2.72562 11993 ft 212 kts 222°
2026-05-07 16:31 56.93206 -2.74358 11997 ft 212 kts 222°
2026-05-07 16:31 56.92104 -2.76154 11996 ft 212 kts 222°
2026-05-07 16:31 56.90998 -2.77955 11994 ft 213 kts 222°
2026-05-07 16:32 56.89870 -2.79700 11993 ft 212 kts 218°
2026-05-07 16:32 56.88670 -2.81280 11974 ft 212 kts 216°
2026-05-07 16:32 56.87441 -2.82833 11974 ft 212 kts 216°
2026-05-07 16:32 56.86226 -2.84372 11978 ft 212 kts 216°
2026-05-07 16:33 56.85011 -2.85912 11987 ft 213 kts 216°
2026-05-07 16:33 56.83800 -2.87445 11976 ft 213 kts 216°
2026-05-07 16:33 56.82582 -2.88984 11977 ft 212 kts 216°
2026-05-07 16:33 56.81368 -2.90517 11978 ft 212 kts 216°
2026-05-07 16:34 56.80154 -2.92050 11997 ft 212 kts 215°
2026-05-07 16:34 56.78941 -2.93582 11987 ft 212 kts 215°
2026-05-07 16:34 56.77729 -2.95111 11987 ft 212 kts 215°
2026-05-07 16:34 56.76514 -2.96642 11984 ft 212 kts 215°
2026-05-07 16:35 56.75303 -2.98167 11978 ft 211 kts 215°
2026-05-07 16:35 56.74082 -2.99700 11991 ft 211 kts 215°
2026-05-07 16:35 56.72872 -3.01217 11985 ft 211 kts 215°
2026-05-07 16:35 56.71660 -3.02736 11983 ft 211 kts 215°
2026-05-07 16:36 56.70465 -3.04234 11983 ft 211 kts 215°
2026-05-07 16:36 56.69257 -3.05745 11986 ft 211 kts 215°
2026-05-07 16:36 56.68033 -3.07277 11993 ft 211 kts 215°
2026-05-07 16:36 56.66839 -3.08772 11988 ft 211 kts 215°
2026-05-07 16:37 56.65629 -3.10286 11988 ft 211 kts 215°
2026-05-07 16:37 56.64455 -3.11753 11988 ft 211 kts 215°
2026-05-07 16:37 56.63247 -3.13261 11992 ft 211 kts 215°
2026-05-07 16:37 56.62001 -3.14817 11994 ft 212 kts 215°
2026-05-07 16:38 56.60789 -3.16327 11991 ft 211 kts 215°
2026-05-07 16:38 56.59577 -3.17838 11990 ft 211 kts 215°
2026-05-07 16:38 56.58373 -3.19336 11992 ft 211 kts 215°
2026-05-07 16:38 56.57156 -3.20850 11995 ft 211 kts 215°
2026-05-07 16:39 56.55943 -3.22357 11996 ft 211 kts 215°
2026-05-07 16:39 56.54730 -3.23863 11995 ft 212 kts 215°
2026-05-07 16:39 56.53515 -3.25371 11997 ft 212 kts 215°
2026-05-07 16:39 56.52295 -3.26884 11987 ft 212 kts 215°
2026-05-07 16:40 56.51074 -3.28396 11986 ft 212 kts 215°
2026-05-07 16:40 56.49853 -3.29907 11988 ft 212 kts 215°
2026-05-07 16:40 56.48634 -3.31415 11989 ft 212 kts 215°
2026-05-07 16:40 56.47399 -3.32942 11991 ft 212 kts 215°
2026-05-07 16:41 56.46181 -3.34446 11993 ft 212 kts 215°
2026-05-07 16:41 56.44961 -3.35955 11993 ft 213 kts 215°
2026-05-07 16:41 56.43761 -3.37437 11991 ft 212 kts 216°
2026-05-07 16:41 56.42543 -3.39008 11992 ft 213 kts 217°
2026-05-07 16:42 56.41344 -3.40583 11991 ft 213 kts 217°
2026-05-07 16:42 56.40128 -3.42174 11988 ft 213 kts 216°
2026-05-07 16:42 56.38927 -3.43738 11987 ft 213 kts 216°
2026-05-07 16:42 56.37726 -3.45297 11996 ft 212 kts 216°
2026-05-07 16:43 56.36528 -3.46849 11992 ft 212 kts 216°
2026-05-07 16:43 56.35336 -3.48390 11987 ft 212 kts 216°
2026-05-07 16:43 56.34128 -3.49952 11852 ft 217 kts 216°
2026-05-07 16:43 56.32905 -3.51533 11624 ft 220 kts 216°
2026-05-07 16:44 56.31655 -3.53147 11389 ft 216 kts 216°
2026-05-07 16:44 56.30442 -3.54710 11165 ft 213 kts 216°
2026-05-07 16:44 56.29225 -3.56277 10928 ft 211 kts 216°
2026-05-07 16:44 56.28037 -3.57806 10702 ft 209 kts 216°
2026-05-07 16:45 56.26858 -3.59323 10475 ft 207 kts 216°
2026-05-07 16:45 56.25674 -3.60844 10243 ft 206 kts 216°
2026-05-07 16:45 56.24503 -3.62347 10023 ft 207 kts 216°
2026-05-07 16:45 56.23335 -3.63846 9804 ft 208 kts 216°
2026-05-07 16:46 56.22155 -3.65357 9550 ft 208 kts 216°
2026-05-07 16:46 56.20977 -3.66868 9306 ft 207 kts 216°
2026-05-07 16:46 56.19832 -3.68427 9071 ft 206 kts 221°
2026-05-07 16:46 56.18745 -3.70115 8842 ft 207 kts 220°
2026-05-07 16:47 56.17584 -3.71654 8378 ft 209 kts 203°
2026-05-07 16:47 56.16181 -3.72445 7965 ft 214 kts 197°
2026-05-07 16:47 56.14706 -3.72616 7527 ft 221 kts 166°
2026-05-07 16:47 56.13383 -3.71195 7111 ft 228 kts 137°
2026-05-07 16:48 56.12734 -3.68585 6684 ft 236 kts 104°
2026-05-07 16:48 56.12480 -3.65682 6252 ft 235 kts 105°
2026-05-07 16:48 56.12184 -3.62849 5797 ft 233 kts 106°
2026-05-07 16:48 56.11875 -3.60006 5354 ft 232 kts 106°
2026-05-07 16:49 56.11663 -3.58078 5058 ft 231 kts 106°
2026-05-07 16:49 56.11249 -3.54325 4472 ft 230 kts 106°
2026-05-07 16:49 56.11044 -3.52462 4176 ft 229 kts 106°
2026-05-07 16:49 56.10636 -3.48744 3580 ft 227 kts 107°
2026-05-07 16:50 56.10428 -3.46865 3287 ft 226 kts 107°
2026-05-07 16:50 56.10122 -3.44093 2853 ft 225 kts 106°
2026-05-07 16:50 56.09818 -3.41335 2405 ft 223 kts 107°
2026-05-07 16:50 56.09526 -3.38665 2226 ft 209 kts 105°
2026-05-07 16:51 56.09257 -3.36183 2227 ft 204 kts 107°
2026-05-07 16:51 56.08975 -3.33672 2208 ft 203 kts 107°
2026-05-07 16:51 56.08694 -3.31169 2197 ft 201 kts 107°
2026-05-07 16:51 56.08418 -3.28716 2194 ft 201 kts 107°
2026-05-07 16:52 56.08147 -3.26296 2203 ft 200 kts 106°
2026-05-07 16:52 56.07866 -3.23781 2208 ft 201 kts 106°
2026-05-07 16:52 56.07588 -3.21320 2200 ft 202 kts 106°
2026-05-07 16:52 56.07308 -3.18820 2193 ft 203 kts 107°
2026-05-07 16:53 56.07038 -3.16342 2188 ft 202 kts 104°
2026-05-07 16:53 56.07203 -3.13854 2184 ft 204 kts 79°
2026-05-07 16:53 56.07585 -3.11402 2191 ft 205 kts 78°
2026-05-07 16:53 56.07928 -3.08935 2188 ft 201 kts 94°
2026-05-07 16:54 56.07462 -3.06754 2189 ft 185 kts 143°
2026-05-07 16:54 56.06309 -3.06123 2196 ft 173 kts 195°
2026-05-07 16:54 56.05339 -3.07422 2207 ft 173 kts 227°
2026-05-07 16:54 56.04604 -3.09046 2198 ft 177 kts 230°
2026-05-07 16:55 56.03844 -3.10987 2197 ft 180 kts 234°
2026-05-07 16:55 56.03164 -3.13011 2195 ft 180 kts 237°
2026-05-07 16:55 56.02536 -3.14951 2195 ft 173 kts 236°
2026-05-07 16:55 56.01933 -3.16767 2187 ft 166 kts 236°
2026-05-07 16:56 56.01343 -3.18495 2181 ft 160 kts 235°
2026-05-07 16:56 56.00771 -3.20177 2183 ft 157 kts 235°
2026-05-07 16:56 55.99566 -3.23736 1698 ft 169 kts 236°
2026-05-07 16:57 55.98962 -3.25529 1440 ft 162 kts 236°
2026-05-07 16:57 55.98414 -3.27187 1249 ft 143 kts 234°
2026-05-07 16:57 55.97939 -3.28584 1032 ft 123 kts 234°
2026-05-07 16:57 55.97544 -3.29762 838 ft 91 kts 233°
2026-05-07 16:58 55.97337 -3.30355 727 ft 78 kts 233°
2026-05-07 16:58 55.97011 -3.31295 567 ft 97 kts 231°
2026-05-07 16:58 55.96643 -3.32346 536 ft 109 kts 237°
2026-05-07 16:58 55.96232 -3.33583 463 ft 119 kts 238°
2026-05-07 16:59 55.95805 -3.34879 299 ft 120 kts 236°
2026-05-07 16:59 55.95402 -3.36077 128 ft 104 kts 236°
2026-05-07 16:59 55.95072 -3.37025 109 ft 71 kts 242°
2026-05-07 16:59 55.94921 -3.37476 107 ft 22 kts 236°
2026-05-07 17:00 55.94831 -3.37746 110 ft 31 kts 239°
2026-05-07 17:00 55.94713 -3.38053 110 ft 22 kts 196°
2026-05-07 17:00 55.94593 -3.37935 111 ft 18 kts 118°
2026-05-07 17:00 55.94599 -3.37862 110 ft 0 kts 61°
2026-05-07 17:01 55.94606 -3.37838 111 ft 11 kts 60°
2026-05-07 17:01 55.94689 -3.37590 110 ft 35 kts 58°
2026-05-07 17:01 55.94834 -3.37156 111 ft 30 kts 57°
2026-05-07 17:01 55.94962 -3.36786 110 ft 39 kts 59°
2026-05-07 17:02 55.95100 -3.36385 111 ft 35 kts 60°
2026-05-07 17:02 55.95185 -3.36134 111 ft 23 kts 60°
2026-05-07 17:02 55.95196 -3.35978 110 ft 11 kts 137°
2026-05-07 17:02 55.95141 -3.35915 112 ft 16 kts 141°